This demonstration page uses our WeatherBlox Daily Observations layout. Learn more.

Left ArrowRight Arrow

39.12711, -84.51439

Hourly Observations for August 5, 2018

Temp ( °F °C ) Dew Point ( °F °C ) Humidity (%) Winds ( mph kmh ) Pressure ( in mb ) Visibility ( mi km ) Precip ( " mm )
12:09 am 00:09 Clear with Mist and Fog 70 21.1 70 21.1 100 100 N N/A 30.15 1021 1 1 N/A
12:13 am 00:13 Clear with Mist and Fog 69 20.6 69 20.6 100 100 N N/A 30.15 1021 3 4 N/A
12:22 am 00:22 Mostly Cloudy with Mist and Fog 70 21.1 70 21.1 100 100 N N/A 30.15 1021 1 2 N/A
12:29 am 00:29 Mostly Cloudy with Fog 70 21.1 70 21.1 100 100 N N/A 30.15 1021 1 1 N/A
12:37 am 00:37 Mostly Clear with Mist and Fog 70 21.1 70 21.1 100 100 N N/A 30.15 1021 2 2 N/A
12:45 am 00:45 Mostly Clear with Mist and Fog 70 21.1 70 21.1 100 100 N N/A 30.15 1021 2 3 N/A
12:53 am 00:53 Clear with Mist and Fog 70 21.1 70 21.1 100 100 N N/A 30.16 1021 1 2 N/A
1:00 am 01:00 Mostly Cloudy with Mist and Fog 70 21.1 70 21.1 100 100 N N/A 30.15 1021 1 1 N/A
1:17 am 01:17 Mostly Cloudy with Fog 69 20.6 69 20.6 100 100 N N/A 30.15 1021 0 0 N/A
1:53 am 01:53 Mostly Cloudy with Fog 69 20.6 69 20.6 100 100 N N/A 30.16 1021 0 0 N/A
2:21 am 02:21 Mostly Cloudy with Fog 68 20 68 20 100 100 N N/A 30.15 1021 1 1 N/A
2:28 am 02:28 Mostly Cloudy with Fog 68 20 68 20 100 100 N N/A 30.15 1021 0 0 N/A
2:53 am 02:53 Mostly Cloudy with Fog 68 20 68 20 100 100 N N/A 30.16 1021 0 0 N/A
3:53 am 03:53 Mostly Cloudy with Fog 69 20.6 69 20.6 100 100 N N/A 30.16 1021 0 0 N/A
4:53 am 04:53 Mostly Cloudy with Fog 67 19.4 67 19.4 100 100 N N/A 30.16 1021 0 0 N/A
5:28 am 05:28 Mostly Cloudy with Mist and Fog 68 20 68 20 100 100 N N/A 30.15 1021 1 1 N/A
5:43 am 05:43 Mostly Cloudy with Fog 68 20 68 20 100 100 N N/A 30.15 1021 0 0 N/A
5:53 am 05:53 Mostly Cloudy with Fog 68 20 68 20 100 100 N N/A 30.17 1022 0 0 N/A
6:53 am 06:53 Mostly Cloudy with Fog 68 20 68 20 100 100 N N/A 30.19 1022 5 8 N/A
7:08 am 07:08 Mostly Cloudy with Fog 68 20 68 20 100 100 N N/A 30.18 1022 5 8 N/A
7:53 am 07:53 Mostly Cloudy with Fog 69 20.6 69 20.6 100 100 N N/A 30.20 1023 5 8 N/A
8:33 am 08:33 Cloudy with Mist and Fog 70 21.1 70 21.1 100 100 N N/A 30.18 1022 1 2 N/A
8:53 am 08:53 Mostly Cloudy with Mist and Fog 71 21.7 71 21.7 100 100 N N/A 30.22 1023 1 2 N/A
9:04 am 09:04 Partly Cloudy with Mist and Fog 72 22.2 72 22.2 100 100 N N/A 30.21 1023 5 8 N/A
9:53 am 09:53 Sunny 78 25.6 74 23.3 87 87 N N/A 30.22 1023 10 16 N/A
10:53 am 10:53 Sunny 83 28.3 75 23.9 77 77 S 3 6 30.22 1023 10 16 N/A
11:53 am 11:53 Mostly Sunny 85 29.4 73 22.8 68 68 S 6 9 30.21 1023 10 16 N/A
12:53 pm 12:53 Partly Cloudy 87 30.6 73 22.8 63 63 VRB 5 7 30.19 1022 10 16 N/A
1:53 pm 13:53 Partly Cloudy 86 30 72 22.2 63 63 WSW 6 9 30.17 1022 10 16 N/A
2:53 pm 14:53 Mostly Cloudy 89 31.7 70 21.1 53 53 N N/A 30.15 1021 10 16 N/A
3:53 pm 15:53 Partly Cloudy 87 30.6 71 21.7 59 59 WSW 7 11 30.14 1021 10 16 N/A
4:53 pm 16:53 Mostly Sunny 87 30.6 70 21.1 57 57 SW 8 13 30.13 1020 10 16 N/A
5:53 pm 17:53 Mostly Sunny 87 30.6 71 21.7 59 59 SSW 5 7 30.11 1020 10 16 N/A
6:53 pm 18:53 Mostly Sunny 83 28.3 74 23.3 74 74 S 3 6 30.11 1020 10 16 N/A
7:53 pm 19:53 Mostly Sunny 81 27.2 76 24.4 85 85 SSW 3 6 30.11 1020 10 16 N/A
8:53 pm 20:53 Clear 77 25 73 22.8 88 88 N N/A 30.13 1020 10 16 N/A
9:53 pm 21:53 Clear 74 23.3 71 21.7 91 91 N N/A 30.14 1021 10 16 N/A
10:53 pm 22:53 Clear 73 22.8 71 21.7 94 94 N N/A 30.14 1021 10 16 N/A
11:53 pm 23:53 Clear 72 22.2 71 21.7 97 97 N N/A 30.16 1021 9 14 N/A

Powered by AerisWeather